Regional Weather Roundup
Issued by NWS

Home | Current Version | Previous Version | Text Only | Print | Product List | Glossary On
Versions: 1 2 3 4 5 6 7 8 9 10 11 12 13 14 15 16 17 18 19 20 21 22 23 24 25 26 27 28 29 30 31 32 33 34 35 36 37 38 39 40 41 42 43 44 45 46 47 48 49 50
000
ASUS45 KREV 240010
RWRNV
NEVADA REGIONAL WEATHER ROUNDUP
NATIONAL WEATHER SERVICE RENO NV
500 PM PDT THU MAR 23 2017

NOTE: "FAIR" INDICATES FEW OR NO CLOUDS BELOW 12,000 FEET WITH NO
SIGNIFICANT WEATHER AND/OR OBSTRUCTIONS TO VISIBILITY.

NVZ001-003-004-240100-
WESTERN NEVADA

CITY           SKY/WX    TMP DP  RH WIND       PRES   REMARKS
RENO           PTSUNNY   55  25  31 NW18      30.06F
6HR MIN TEMP:  45; 6HR MAX TEMP:  60;

CARSON CITY    FAIR      52  23  32 NW9G20    30.10S
MINDEN         FAIR      54  25  32 W16       30.09S
FALLON         PTSUNNY   58  16  19 SW3       30.05S
6HR MIN TEMP:  49; 6HR MAX TEMP:  59;

LOVELOCK       SUNNY     57  19  22 W9        30.04S
6HR MIN TEMP:  47; 6HR MAX TEMP:  58;

HAWTHORNE      SUNNY     57  16  19 NW8       30.05S
$$

NVZ002-CAZ072-073-240100-
NORTHERN AND CENTRAL SIERRA

CITY           SKY/WX    TMP DP  RH WIND       PRES   REMARKS
S. LAKE TAHOE  SUNNY     43  27  53 S10       30.13S
6HR MIN TEMP:  38; 6HR MAX TEMP:  45;

TRUCKEE        MOSUNNY   43  25  49 SW8       30.14R
                   6HR MAX TEMP:  43;

SQUAW VLY 8000 NOT AVBL
SUSANVILLE     SUNNY     52  30  43 SW14      30.08F
MAMMOTH LAKES  FAIR      47  14  26 W12       30.12R
6HR MIN TEMP:  38; 6HR MAX TEMP:  48;

BRIDGEPORT       N/A     44  23  43 SW14G23   30.10R
$$

NVZ030-031-036-240100-
NORTHERN NEVADA

CITY           SKY/WX    TMP DP  RH WIND       PRES   REMARKS
ELKO           PTSUNNY   49  24  37 W10       30.04S
6HR MIN TEMP:  44; 6HR MAX TEMP:  52;

WINNEMUCCA     MOSUNNY   54  27  35 SW6       30.04S
6HR MIN TEMP:  46; 6HR MAX TEMP:  56;

WENDOVER       SUNNY     56  21  25 NW24      29.96R
$$

NVZ035-037-240100-
CENTRAL NEVADA

CITY           SKY/WX    TMP DP  RH WIND       PRES   REMARKS
ELY            SUNNY     48  26  42 NW17      30.01R
6HR MIN TEMP:  35; 6HR MAX TEMP:  48; 6HR PCP: TRACE;

EUREKA           N/A     47  28  47 N10       30.06S
6HR MIN TEMP:  37; 6HR MAX TEMP:  48;

$$

NVZ013-014-240100-
SOUTH CENTRAL NEVADA

CITY           SKY/WX    TMP DP  RH WIND       PRES   REMARKS
TONOPAH        SUNNY     54  19  25 N16G26    30.06R
6HR MIN TEMP:  47; 6HR MAX TEMP:  55;

$$

NVZ017-020-022-240100-
SOUTHERN NEVADA

CITY           SKY/WX    TMP DP  RH WIND       PRES   REMARKS
LAS VEGAS      MOSUNNY   70  22  16 NW16G23   29.92F
6HR MIN TEMP:  60; 6HR MAX TEMP:  72; 6HR PCP: TRACE;

N. LAS VEGAS   MOSUNNY   71  24  17 NW18      29.92S
6HR MIN TEMP:  60; 6HR MAX TEMP:  72;

NELLIS AFB     MOSUNNY   72  28  19 W15G21    29.92S
6HR MIN TEMP:  62; 6HR MAX TEMP:  72;

HENDERSON      MOSUNNY   70  26  19 N16       29.96F
6HR MIN TEMP:  59; 6HR MAX TEMP:  70; 6HR PCP: TRACE;

MERCURY        MOSUNNY   68  18  14 W16G26    29.97S
6HR MIN TEMP:  56; 6HR MAX TEMP:  68;

$$



USA.gov is the U.S. government's official web portal to all federal, state and local government web resources and services.